Location: Newark
(54.0500°N, 12.8333°E)
Time: 21:40:45
(UTC+00:00)

N. Korean satellite - Visible Passes

Search period start: 07 December 2019 00:00
Search period end: 17 December 2019 00:00
Orbit: 456 x 506 km, 97.2° (Epoch: 06 December)

Date Brightness Start Highest point End Pass type
(mag) Time Alt. Az. Time Alt. Az. Time Alt. Az.
07 Dec 8.1 04:42:50 10° NNE 04:46:14 37° E 04:49:32 10° SSE visible
07 Dec 7.7 06:16:33 10° N 06:19:28 24° WNW 06:22:21 10° WSW visible
07 Dec 9.3 16:58:21 10° SW 17:01:20 22° W 17:04:19 10° NW visible
08 Dec 9.2 04:17:50 10° NE 04:20:37 21° E 04:23:21 10° SE visible
08 Dec 6.9 05:50:48 10° N 05:54:12 40° WNW 05:57:31 10° SW visible
08 Dec 8.2 16:32:14 10° SSW 16:35:44 39° W 16:39:15 10° NNW visible
09 Dec 10.0 03:53:29 10° ENE 03:54:55 12° E 03:56:20 10° ESE visible
09 Dec 6.4 05:25:14 10° N 05:28:49 75° WNW 05:32:20 10° SSW visible
09 Dec 6.9 16:06:32 10° S 16:10:14 73° WSW 16:13:57 10° NNW visible
10 Dec 7.2 04:59:49 10° NNE 05:03:22 57° E 05:06:49 10° S visible
10 Dec 6.6 15:41:09 10° SSE 15:44:49 61° ENE 15:48:28 10° N visible
10 Dec 9.9 17:16:17 10° SW 17:18:34 16° W 17:20:52 10° NW visible
11 Dec 8.5 04:34:36 10° NNE 04:37:49 30° E 04:40:57 10° SSE visible
11 Dec 7.4 06:08:05 10° N 06:11:10 27° WNW 06:14:11 10° SW visible
11 Dec 9.0 16:49:44 10° SSW 16:52:55 26° W 16:56:06 10° NW visible
12 Dec 9.5 04:09:43 10° NE 04:12:09 17° E 04:14:34 10° SE visible
12 Dec 6.7 05:42:23 10° N 05:45:50 48° WNW 05:49:13 10° SW visible
12 Dec 7.7 16:23:46 10° S 16:27:21 47° W 16:30:56 10° NNW visible
13 Dec 6.4 05:16:51 10° NNE 05:20:26 89° E 05:23:55 10° SSW visible
13 Dec 6.6 15:58:10 10° SSE 16:01:52 88° WSW 16:05:33 10° NNW visible
13 Dec 10.2 17:35:03 10° W 17:35:51 11° W 17:36:37 10° WNW visible
14 Dec 7.6 04:51:30 10° NNE 04:54:57 46° E 04:58:18 10° S visible
14 Dec 7.9 06:25:28 10° NNW 06:28:04 19° WNW 06:30:38 10° WSW visible
14 Dec 6.8 15:32:53 10° SE 15:36:27 50° ENE 15:40:01 10° N visible
14 Dec 9.6 17:07:30 10° SW 17:10:07 18° W 17:12:44 10° NW visible
15 Dec 8.8 04:26:22 10° NE 04:29:21 25° E 04:32:17 10° SSE visible
15 Dec 7.2 05:59:37 10° N 06:02:48 32° WNW 06:05:56 10° SW visible
15 Dec 8.6 16:41:10 10° SSW 16:44:29 31° W 16:47:48 10° NNW visible
16 Dec 9.7 04:01:41 10° NE 04:03:40 14° E 04:05:38 10° ESE visible
16 Dec 6.5 05:33:58 10° N 05:37:27 59° WNW 05:40:52 10° SSW visible
16 Dec 7.3 16:15:19 10° S 16:18:57 58° W 16:22:33 10° NNW visible
